This is the latest recevied weather packets stored in our database for station/object W9KHP-1. If no packets are shown the sender has not sent any weather packets the latest 10 day(s).
| Time | Temp. | Humidity | Pressure | Rain* | Wind** | Luminosity | Snow |
|---|---|---|---|---|---|---|---|
| 1777489307 | 18.89° C | 71% | 1015.5 hPa | 0 mm | - | 212 W/m² | - |
| 1777489004 | 18.33° C | 72% | 1015.8 hPa | 0 mm | - | 725 W/m² | - |
| 1777488701 | 18.33° C | 70% | 1015.6 hPa | 0 mm | - | 169 W/m² | - |
| 1777488399 | 19.44° C | 67% | 1015.7 hPa | 0 mm | - | 342 W/m² | - |
| 1777488097 | 19.44° C | 68% | 1015.5 hPa | 0 mm | - | 640 W/m² | - |
| 1777487795 | 19.44° C | 68% | 1015.5 hPa | 0 mm | - | 689 W/m² | - |
| 1777487492 | 20° C | 64% | 1015.5 hPa | 0 mm | - | 696 W/m² | - |
| 1777487190 | 20° C | 71% | 1015.4 hPa | 0 mm | - | 747 W/m² | - |
| 1777486885 | 18.89° C | 75% | 1015.4 hPa | 0 mm | - | 716 W/m² | - |
| 1777486582 | 18.89° C | 74% | 1015.2 hPa | 0 mm | - | 210 W/m² | - |
| 1777486280 | 19.44° C | 70% | 1015.4 hPa | 0 mm | - | 217 W/m² | - |
| 1777485978 | 19.44° C | 72% | 1015.3 hPa | 0 mm | - | 811 W/m² | - |
| 1777485674 | 18.89° C | 71% | 1015.6 hPa | 0 mm | - | 704 W/m² | - |
| 1777485369 | 18.89° C | 75% | 1015.6 hPa | 0 mm | - | 291 W/m² | - |
| 1777485065 | 19.44° C | 75% | 1015.7 hPa | 0 mm | - | 324 W/m² | - |
| 1777484763 | 18.33° C | 74% | 1015.9 hPa | 0 mm | - | 863 W/m² | - |
| 1777484459 | 17.78° C | 77% | 1015.8 hPa | 0 mm | - | 247 W/m² | - |
| 1777484156 | 18.33° C | 77% | 1015.7 hPa | 0 mm | - | 218 W/m² | - |
| 1777483852 | 18.33° C | 75% | 1015.9 hPa | 0 mm | - | 160 W/m² | - |
| 1777483548 | 18.33° C | 75% | 1016 hPa | 0 mm | - | 359 W/m² | - |
| 1777483243 | 18.89° C | 72% | 1015.8 hPa | 0 mm | - | 138 W/m² | - |
| 1777482940 | 18.89° C | 75% | 1015.9 hPa | 0 mm | - | 318 W/m² | - |
| 1777482636 | 18.89° C | 74% | 1015.7 hPa | 0 mm | - | 136 W/m² | - |
| 1777482333 | 18.89° C | 78% | 1015.7 hPa | 0 mm | - | 255 W/m² | - |
| 1777482031 | 18.89° C | 77% | 1015.7 hPa | 0 mm | - | 537 W/m² | - |
* Rain latest hour (hover to see other rain measurements)
** Current wind speed in m/s (hover to see current wind gust speed)